Willimantic, CT

5:52 AM EDT on October 17, 2017 (GMT -0400)
Windham

Weather History for KIJD - June, 2013

Change the Weather History Date:

Wednesday, June 26, 2013

  Actual Average Record
Temperature  
Mean Temperature 76 °F -  
Max Temperature 84 °F 78 °F 98 °F (1952)
Min Temperature 69 °F 53 °F 40 °F (1965)
Cooling Degree Days 12    
Growing Degree Days 26 (Base 50)    
Moisture  
Dew Point 69 °F    
Average Humidity 82    
Maximum Humidity 94    
Minimum Humidity 55    
Precipitation  
Precipitation 0.04 in - - ()
Sea Level Pressure  
Sea Level Pressure 29.79 in    
Wind  
Wind Speed 2 mph (West)    
Max Wind Speed 8 mph    
Max Gust Speed -    
Visibility 8 miles    
Events Rain , Thunderstorm    
Averages and records for this station are not official NWS values.
T = Trace of Precipitation, MM = Missing Value Source: NWS Daily Summary

Daily Weather History Graph

Daily Weather History Graph

Search for Another Location

Airport or City:

Trip Planner

Search our weather history database for the weather conditions in past years. The results will help you decide how hot, cold, wet, or windy it might be!

Date:

Astronomy

Jun. 26, 2013 Rise Set
Actual Time 5:15 AM EDT 8:27 PM EDT
Civil Twilight 4:41 AM EDT 9:01 PM EDT
Nautical Twilight 3:57 AM EDT 9:45 PM EDT
Astronomical Twilight 3:04 AM EDT 10:38 PM EDT
Moon 10:44 PM EDT (6/26) 9:07 AM EDT (6/26)
Length of Visible Light 16h 20m
Length of Day
15h 11m
Waning Gibbous, 85% of the Moon is Illuminated
Jun 26
Waning Gibbous
Jun 30
Last Quarter
Jul 8
New
Jul 15
First Quarter
Jul 22
Full

Hourly Weather History & Observations

Time (EDT) Temp. Heat Index Dew Point Humidity Pressure Visibility Wind Dir Wind Speed Gust Speed Precip Events Conditions
12:52 AM 71.1 °F - 69.1 °F 93% 29.80 in 6.0 mi Calm Calm - N/A   Clear
1:52 AM 71.1 °F - 69.1 °F 93% 29.77 in 6.0 mi Calm Calm - 0.01 in   Partly Cloudy
2:52 AM 71.1 °F - 69.1 °F 93% 29.76 in 5.0 mi Calm Calm - N/A   Scattered Clouds
3:52 AM 70.0 °F - 68.0 °F 93% 29.76 in 6.0 mi ENE 3.5 mph - N/A   Clear
4:52 AM 70.0 °F - 68.0 °F 93% 29.76 in 5.0 mi Calm Calm - N/A   Clear
5:05 AM 69.8 °F - 68.0 °F 94% 29.77 in 5.0 mi North 3.5 mph - N/A   Scattered Clouds
5:52 AM 70.0 °F - 68.0 °F 93% 29.78 in 4.0 mi Calm Calm - N/A   Clear
6:28 AM 69.8 °F - 68.0 °F 94% 29.78 in 5.0 mi Calm Calm - N/A   Partly Cloudy
6:52 AM 71.1 °F - 69.1 °F 93% 29.79 in 4.0 mi Calm Calm - N/A   Partly Cloudy
7:52 AM 73.9 °F - 70.0 °F 87% 29.79 in 7.0 mi Calm Calm - N/A   Clear
8:52 AM 78.1 °F - 71.1 °F 79% 29.80 in 8.0 mi Calm Calm - N/A   Clear
9:52 AM 81.0 °F 83.3 °F 66.9 °F 62% 29.79 in 10.0 mi NW 8.1 mph - N/A   Clear
10:52 AM 82.0 °F 84.9 °F 68.0 °F 62% 29.79 in 10.0 mi West 8.1 mph - N/A   Partly Cloudy
11:52 AM 82.0 °F 84.1 °F 66.0 °F 58% 29.80 in 9.0 mi West 6.9 mph - N/A   Mostly Cloudy
12:52 PM 82.9 °F 85.0 °F 66.0 °F 56% 29.79 in 10.0 mi NW 5.8 mph - N/A   Mostly Cloudy
1:52 PM 84.0 °F 86.3 °F 66.0 °F 55% 29.78 in 10.0 mi WNW 6.9 mph - N/A   Scattered Clouds
2:52 PM 78.1 °F - 72.0 °F 81% 29.80 in 9.0 mi WNW 5.8 mph - 0.03 in Rain Light Rain
3:05 PM 75.2 °F - 71.6 °F 89% 29.80 in 8.0 mi North 5.8 mph - N/A Thunderstorm Thunderstorm
3:20 PM 78.8 °F - 73.4 °F 83% 29.80 in 9.0 mi WNW 3.5 mph - N/A   Mostly Cloudy
3:52 PM 80.1 °F 83.2 °F 70.0 °F 71% 29.78 in 10.0 mi WSW 8.1 mph - N/A   Scattered Clouds
4:52 PM 79.0 °F - 70.0 °F 74% 29.79 in 10.0 mi West 5.8 mph - N/A   Clear
5:21 PM 78.8 °F - 69.8 °F 74% 29.80 in 10.0 mi WSW 6.9 mph - N/A   Partly Cloudy
5:52 PM 79.0 °F - 70.0 °F 74% 29.79 in 10.0 mi WSW 5.8 mph - N/A   Partly Cloudy
6:52 PM 77.0 °F - 70.0 °F 79% 29.81 in 8.0 mi West 3.5 mph - 0.00 in Rain Light Rain
7:52 PM 75.9 °F - 71.1 °F 85% 29.81 in 8.0 mi SSW 3.5 mph - 0.00 in   Partly Cloudy
8:52 PM 75.0 °F - 70.0 °F 84% 29.81 in 9.0 mi Calm Calm - 0.00 in   Mostly Cloudy
9:52 PM 73.0 °F - 71.1 °F 93% 29.83 in 7.0 mi Calm Calm - N/A   Clear
10:52 PM 72.0 °F - 70.0 °F 93% 29.83 in 5.0 mi Calm Calm - N/A   Scattered Clouds
11:52 PM 72.0 °F - 69.1 °F 91% 29.84 in 7.0 mi South 4.6 mph - N/A   Overcast